COSMOS 1275 DEB

Satellite information

Favourite Embed

Satellite Type and Status

DEBRISIN ORBIT

Key statistics

Satellite COSMOS 1275 DEB at a glance.

Uptime

16046

Days in orbit

Revolutions

≈ 13.9

Per day

Orbit

LEO

Low Earth Orbit

Inclination

83.0

Latest

Satellite identification and parameters

Extended collection of information and parameters for COSMOS 1275 DEB.

Object identification

Identified? True

Debris? True

Object name: COSMOS 1275 DEB

International designator: 1981-053BG

Object number (NORAD): 12712

Object ID (CCSDS): 12712

Country: COMMONWEALTH OF INDEPENDENT STATES (CIS)

Current information (Y/N): Y

RCS size: SMALL

Orbital parameters

Period: 103.722 minutes

Inclination: 82.9829 deg

SMA: 7312.629 km

Apoapsis: 987.354 km

Periapsis: 881.635 km

RAAN: 260.7318 deg

Eccentricy: 0.0072285

Argument of periapsis: 167.1453 deg

Mean anomaly: 310.9794 deg

Mean motion: 13.88329121 rev/day

Mean motion (dot): 0.00001694 rev/day2

B* drag term: 0.0013729 1/REarth

Two-line elements (TLE)

Creation date: May 10, 2025, 2:32 a.m.

Reference frame: TEME

Reference center: EARTH

Epoch: May 9, 2025, 8:16 p.m. UTC

TLE line 0: 0 COSMOS 1275 DEB

TLE line 1: 1 12712U 81053BG 25129.84483978 .00001694 00000-0 13729-2 0 9994

TLE line 2: 2 12712 82.9829 260.7318 0072285 167.1453 310.9794 13.88329121195467

Live tracking on map

Real-time ground track for satellite COSMOS 1275 DEB.

In-orbit conjunctions

A list of the most updated potential collisions computed for object COSMOS 1275 DEB.

Target Orbit TCA Probability of collision Miss distance Type
SL-3 R/B LEO 2024-12-20 10:15:54 0.0001157977 397.0 (m) ROCKET BODY
SL-8 R/B LEO 2024-10-16 23:19:41 0.000107816 686.0 (m) ROCKET BODY
SL-8 R/B LEO 2024-09-12 03:13:09 0.000223638 772.0 (m) ROCKET BODY

Associated space launch

Navigation satellite providing location information for the Tsiklon-B navigation system

COSMOS 1275 DEB was lifted into orbit during the mission ‘Kosmos-3M | Parus 27’, on board a Kosmos-3M space rocket.

The launch took place on June 4, 1981, 3:41 p.m. from 132/2.

For more information about the launch, click the button.

Launch to space Kosmos-3M | Parus 27
Kosmos-3M | Parus 27

Agency: N/A

Status: Launch Successful

Launch date: June 4, 1981, 3:41 p.m. UTC

Rocket: Kosmos-3M

Launch pad: 132/2

Location: Plesetsk Cosmodrome, Russian Federation

...

Latest news about this satellite

There are no fresh news available about this satellite. Check back as we update our databases every day.


Newsletter sign-up

Weekly statistics, charts and insights to help you stay on top of the space industry.